Home   Weather   Luanda   Past weeks

Flag for Angola Past Weather in Luanda, Angola — Yesterday and Last 2 Weeks

Now
79 °F

Passing clouds.


Feels Like: 82 °F
Forecast: 78 / 87 °F
Wind: 2 mph from North

Location: Luanda Airport

Current Time: Feb 21, 2017 at 4:43:12 am

Latest Report: Feb 21, 2017 at 4:00 am


Visibility: 5 mi

Pressure: 29.83 "Hg

Humidity: 89%

Dew Point: 75 °F

Location of LuandaLocation

Past Weather in Luanda — Graph

°F

Luanda Temperature Yesterday

Maximum temperature yesterday: 88 °F (at 2:00 pm)
Minimum temperature yesterday: 79 °F (at 12:00 am)
Average temperature yesterday: 82 °F

High & Low Weather Summary for the Past Weeks

 TemperatureHumidityPressure
High90 °F (Feb 12, 12:00 pm)94% (Feb 19, 7:00 am)29.95 "Hg (Feb 19, 7:00 am)
Low73 °F (Feb 7, 6:00 am)18% (Feb 14, 12:00 pm)29.68 "Hg (Feb 10, 4:00 pm)
Average81 °F75%29.82 "Hg
* Reported Feb 6 3:00 am — Feb 21 3:00 am, Luanda, Weather by CustomWeather, © 2017

Note: Actual official high and low records may vary slightly from our data, if they occured in-between our weather recording intervals... More about our weather records

Advertising

Luanda Weather History for the Previous 24 Hours

Scroll right to see more
 ConditionsComfort  
Time TempWeatherWind HumidityBarometerVisibility
3:00 am
Tue, Feb 21
79 °FPassing clouds.2 mph84%29.83 "Hg5 mi
2:00 am79 °FPassing clouds.3 mph84%29.86 "Hg5 mi
1:00 am79 °FPassing clouds.5 mph84%29.89 "Hg5 mi
12:00 am79 °FPassing clouds.5 mph84%29.89 "Hg5 mi
11:00 pm
Mon, Feb 20
79 °FPassing clouds.5 mph84%29.92 "Hg5 mi
10:00 pm79 °FPartly cloudy.3 mph84%29.92 "Hg5 mi
9:00 pm79 °FPassing clouds.3 mph84%29.92 "HgN/A
8:00 pm79 °FPassing clouds.5 mph89%29.89 "HgN/A
7:00 pm81 °FPartly cloudy.5 mph84%29.86 "HgN/A
6:00 pm81 °FBroken clouds.7 mph84%29.83 "HgN/A
5:00 pm82 °FPartly sunny.7 mph79%29.83 "HgN/A
4:00 pm84 °FPartly sunny.8 mph70%29.83 "HgN/A
3:00 pm86 °FScattered clouds.6 mph70%29.83 "HgN/A
2:00 pm88 °FPassing clouds.7 mph62%29.83 "HgN/A
1:00 pm86 °FScattered clouds.7 mph66%29.89 "HgN/A
12:00 pm86 °FScattered clouds.7 mph66%29.92 "HgN/A
11:00 am86 °FPartly sunny.5 mph70%29.92 "HgN/A
10:00 am82 °FBroken clouds.5 mph79%29.92 "HgN/A
9:00 am82 °FBroken clouds.No windN/AN/AN/A
8:00 am81 °FBroken clouds.No windN/AN/AN/A
7:00 am79 °FBroken clouds.No wind84%29.86 "Hg5 mi
6:00 am79 °FPartly cloudy.3 mph84%29.86 "Hg5 mi
5:00 am79 °FPartly cloudy.2 mph84%29.86 "Hg5 mi
4:00 am79 °FPartly cloudy.No wind84%29.86 "Hg6 mi
Weather by CustomWeather, © 2017

See weather overviewHow to use our weather pages